Regional Weather Roundup
Issued by NWS

Home | Current Version | Previous Version | Graphics & Text | Print | Product List | Glossary On
Versions: 1 2 3 4 5 6 7 8 9 10 11 12 13 14 15 16 17 18 19 20 21 22 23 24 25 26 27 28 29 30 31 32 33 34 35 36 37 38 39 40 41 42 43 44 45 46 47 48 49 50
000
ASUS43 KDMX 250807
RWRIA

WEATHER ROUNDUP FOR IOWA
NATIONAL WEATHER SERVICE DES MOINES IA
200 AM CST THU DEC 25 2014

NOTE: "FAIR" INDICATES FEW OR NO CLOUDS BELOW 12,000 FEET WITH NO
SIGNIFICANT WEATHER AND/OR OBSTRUCTIONS TO VISIBILITY.

* - THESE STATIONS ARE NOT NWS STATIONS...THUS NOT UNDER NWS
QUALITY CONTROL.  THEY ALSO DO NOT REPORT WEATHER SUCH
AS PRECIPITATION OR FOG.

IAZ001>003-012>014-020>022-031>034-043>046-250900-
   NORTHWEST IOWA

CITY           SKY/WX    TMP DP  RH WIND       PRES   REMARKS
CARROLL *      CLEAR     28  28 100 S14       29.66S WCI  17
CHEROKEE *     CLEAR     27  27 100 S8        29.61F WCI  18
DENISON *      CLEAR     28  30 100 S12G20    29.63S WCI  18
LE MARS *      CLEAR     28  27  93 S15       29.59R WCI  17
ORANGE CITY *  CLEAR     27  25  93 S8        29.58R WCI  18
SHELDON *      CLEAR     27  27 100 S12       29.57S WCI  16
SIOUX CITY     CLEAR     28  25  88 SE8       29.60S WCI  20
SPENCER        MOCLDY    29  26  89 S14       29.60F WCI  18
STORM LAKE *   CLEAR     25  25 100 S14       29.63R FOG     WCI  13
$$

IAZ055>058-069>071-079>083-090>094-250900-
   SOUTHWEST IOWA

CITY           SKY/WX    TMP DP  RH WIND       PRES   REMARKS
ATLANTIC *     CLEAR     30  28  93 S12       29.68F WCI  21
AUDUBON *      CLEAR     28  25  86 S8        29.68S WCI  20
CLARINDA *     CLEAR     30  28  93 S7G13     29.74F WCI  23
COUNCIL BLFS * CLEAR     28  28 100 S12       29.65S WCI  18
CRESTON *      CLEAR     28  28 100 S15       29.73R WCI  17
HARLAN  *      CLEAR     28  28 100 S12       29.70S WCI  18
LAMONI         CLEAR     30  27  88 S12       29.76R WCI  20
RED OAK *      CLEAR     30  28  93 S10       29.70F WCI  21
SHENANDOAH *   CLEAR     30  28  93 S9        29.72S WCI  22
$$

IAZ047>049-059>061-072>074-084-250900-
   CENTRAL IOWA

CITY           SKY/WX    TMP DP  RH WIND       PRES   REMARKS
AMES           CLOUDY    31  27  85 SW16      29.73R WCI  20
ANKENY *       CLOUDY    32  28  86 SW13      29.74R WCI  22
CHARITON *     CLOUDY    32  28  86 S14       29.76S WCI  22
DES MOINES     CLOUDY    32  27  81 SW13      29.74S WCI  22
GRINNELL*      CLOUDY    32  28  86 SW12      29.75R WCI  23
KNOXVILLE *    CLOUDY    32  28  86 SW10      29.75R WCI  24
MARSHALLTOWN   CLOUDY    30  27  88 SW12      29.73R WCI  20
PELLA *        CLOUDY    32  28  86 SW10G16   29.77S WCI  24
PERRY *        CLOUDY    32  30  93 S13       29.71R WCI  22
$$

IAZ004>006-015-016-023>025-035-036-250900-
   NORTH CENTRAL IOWA

CITY           SKY/WX    TMP DP  RH WIND       PRES   REMARKS
ALGONA *       CLOUDY    28  28 100 S18       29.65R WCI  16
CLARION *      CLOUDY    30  30 100 SW15      29.68R FOG     WCI  19
ESTHERVILLE    CLOUDY    27  26  96 SW15      29.61S WCI  15
FORT DODGE *   CLOUDY    28  27  93 S14       29.68S WCI  17
MASON CITY     CLOUDY    28  25  88 SW12      29.68R WCI  18
FOREST CITY *  CLOUDY    28  27  93 SW15      29.66R WCI  17
IOWA FALLS *   CLOUDY    30  27  86 SW15      29.72R FOG     WCI  19
$$

IAZ007>011-017>019-026>030-037>042-050>054-066-250900-
   NORTHEAST IOWA

CITY           SKY/WX    TMP DP  RH WIND       PRES   REMARKS
CEDAR RAPIDS   CLOUDY    31  29  92 SW16G23   29.75R WCI  20
CHARLES CITY * CLOUDY    30  30 100 SW14G22   29.70R WCI  20
CLINTON *      CLOUDY    34  28  80 W12       29.78R WCI  25
DECORAH *      CLOUDY    30  28  93 VRB7      29.67R WCI  23
DUBUQUE        CLOUDY    31  28  89 W13       29.71R WCI  21
MONTICELLO *   MIX PCPN  32  30  93 SW13G20   29.74R WCI  22
OELWEIN *      CLOUDY    30  28  93 W15       29.72R WCI  19
WATERLOO       CLOUDY    30  28  92 SW16      29.73R WCI  19
$$

IAZ064-065-067-068-078-250900-
   EAST CENTRAL IOWA

CITY           SKY/WX    TMP DP  RH WIND       PRES   REMARKS
DAVENPORT      CLOUDY    32  27  81 W15       29.77R WCI  22
IOWA CITY      CLOUDY    32  29  88 SW12      29.79R WCI  23
MT. PLEASANT * CLOUDY    32  28  86 SW13      29.81R WCI  22
MUSCATINE *    CLOUDY    34  30  86 W12       29.81R WCI  25
QUAD CITIES    CLOUDY    34  28  79 W15G22    29.78R WCI  24
$$

IAZ062-063-075>077-085>089-095>099-250900-
   SOUTHEAST IOWA

CITY           SKY/WX    TMP DP  RH WIND       PRES   REMARKS
BURLINGTON     CLOUDY    34  29  82 W14       29.81R WCI  25
FAIRFIELD *    CLOUDY    34  28  80 SW9       29.80R WCI  26
FORT MADISON * CLOUDY    36  30  80 SW7       29.83R WCI  30
KEOKUK *       CLOUDY    34  30  86 SW12      29.83R WCI  25
OSKALOOSA *    CLOUDY    32  28  86 SW17      29.78R WCI  21
CENTERVILLE *  CLOUDY    32  30  93 SW10      29.80R WCI  24
OTTUMWA        CLOUDY    33  28  81 SW15      29.78R WCI  23
WASHINGTON *   CLOUDY    34  34 100 SW14      29.79R WCI  24
$$

ABBREVIATIONS USED IN REMARKS
   TC - TEMPERATURES IN CELSIUS
  WCI - WIND CHILL INDEX
   HX - HEAT INDEX
  VSB - VISIBILITY
$$




USA.gov is the U.S. government's official web portal to all federal, state and local government web resources and services.